Weather History for MNMG - May, 2013

Change the Weather History Date:

Friday, May 3, 2013

  Actual Average Record
Temperature  
Mean Temperature 86 °F -  
Max Temperature 96 °F 91 °F 98 °F (1998)
Min Temperature 75 °F 73 °F 73 °F (2002)
Cooling Degree Days 20    
Growing Degree Days 36 (Base 50)    
Moisture  
Dew Point 72 °F    
Average Humidity 70    
Maximum Humidity 89    
Minimum Humidity 39    
Precipitation  
Precipitation 0.00 in - - ()
Sea Level Pressure  
Sea Level Pressure 29.81 in    
Wind  
Wind Speed 5 mph ()    
Max Wind Speed 14 mph    
Max Gust Speed -    
Visibility 5.6 miles    
Events Rain    
Averages and records for this station are not official NWS values.
T = Trace of Precipitation, MM = Missing Value Source: Averaged Metar Reports

Daily Weather History Graph

Daily Weather History Graph

Search for Another Location

Airport or City:

Trip Planner

Search our weather history database for the weather conditions in past years. The results will help you decide how hot, cold, wet, or windy it might be!

Date:

Astronomy

May. 03, 2013 Rise Set
Actual Time 5:24 AM CST 5:59 PM CST
Civil Twilight 5:01 AM CST 6:21 PM CST
Nautical Twilight 4:36 AM CST 6:47 PM CST
Astronomical Twilight 4:09 AM CST 7:13 PM CST
Moon 12:43 AM CST (5/3) 12:53 PM CST (5/3)
Length of Visible Light 13h 19m
Length of Day
12h 35m
Last Quarter, 36% of the Moon is Illuminated
May 3
Last Quarter
May 9
New
May 17
First Quarter
May 24
Full
May 31
Last Quarter

Hourly Weather History & Observations

Time (CST) Temp. Heat Index Dew Point Humidity Pressure Visibility Wind Dir Wind Speed Gust Speed Precip Events Conditions
12:00 AM 80.6 °F 85.4 °F 73.4 °F 79% 29.83 in 6.2 mi WNW 6.9 mph - N/A   Scattered Clouds
1:00 AM 82.4 °F 89.5 °F 75.2 °F 79% 29.83 in 6.2 mi WNW 6.9 mph - N/A   Scattered Clouds
2:00 AM 80.6 °F 86.2 °F 75.2 °F 84% 29.80 in 6.2 mi WNW 6.9 mph - N/A   Scattered Clouds
3:00 AM 78.8 °F - 75.2 °F 89% 29.77 in 6.2 mi WSW 4.6 mph - N/A   Scattered Clouds
4:00 AM 77.0 °F - 73.4 °F 89% 29.80 in 6.2 mi Calm Calm - N/A   Scattered Clouds
7:00 AM 80.6 °F 85.4 °F 73.4 °F 79% 29.86 in 6.2 mi WNW 4.6 mph - N/A   Mostly Cloudy
8:00 AM 82.4 °F 86.3 °F 69.8 °F 66% 29.86 in 5.0 mi West 6.9 mph - N/A   Scattered Clouds
9:00 AM 87.8 °F 95.6 °F 73.4 °F 62% 29.80 in 5.6 mi WSW 6.9 mph - N/A   Scattered Clouds
10:00 AM 86.0 °F 93.4 °F 73.4 °F 66% 29.83 in 5.6 mi West 9.2 mph - N/A   Scattered Clouds
11:00 AM 86.0 °F 93.4 °F 73.4 °F 66% 29.83 in 5.6 mi West 4.6 mph - N/A   Scattered Clouds
12:00 PM 86.0 °F 95.1 °F 75.2 °F 70% 29.80 in 5.6 mi WNW 4.6 mph - N/A   Scattered Clouds
1:00 PM 89.6 °F 98.2 °F 73.4 °F 59% 29.77 in 5.6 mi WNW 6.9 mph - N/A   Scattered Clouds
2:00 PM 93.2 °F 100.5 °F 71.6 °F 49% 29.77 in 5.6 mi NNW 6.9 mph - N/A   Scattered Clouds
3:00 PM 96.8 °F 101.8 °F 68.0 °F 39% 29.71 in 5.6 mi North 6.9 mph - N/A   Scattered Clouds
4:00 PM 93.2 °F 100.5 °F 71.6 °F 49% 29.71 in 5.6 mi North 6.9 mph - N/A   Scattered Clouds
5:00 PM 91.4 °F 96.8 °F 69.8 °F 49% 29.71 in 5.6 mi North 4.6 mph - N/A   Scattered Clouds
6:00 PM 80.6 °F 84.6 °F 71.6 °F 74% 29.80 in 5.0 mi ESE 13.8 mph - N/A   Light Drizzle
6:26 PM - - - N/A% - 5.0 mi South 6.9 mph - N/A Rain Rain
7:00 PM 75.2 °F - 69.8 °F 83% 29.80 in 5.0 mi SSE 9.2 mph - N/A   Scattered Clouds
8:00 PM 77.0 °F - 69.8 °F 78% 29.83 in 5.0 mi East 6.9 mph - N/A   Scattered Clouds
9:00 PM 75.2 °F - 69.8 °F 83% 29.86 in 5.0 mi East 4.6 mph - N/A   Scattered Clouds
10:00 PM 77.0 °F - 69.8 °F 78% 29.89 in 5.0 mi Calm Calm - N/A   Scattered Clouds
11:00 PM 77.0 °F - 69.8 °F 78% 29.86 in 5.6 mi Calm Calm - N/A   Scattered Clouds